station,date_time,water_elev
363653089170701,05/03/2011 18:46,305.4
363653089170701,05/03/2011 18:47,305.41
363653089170701,05/03/2011 18:48,305.41
363653089170701,05/03/2011 18:49,305.41
363653089170701,05/03/2011 18:50,305.41
363653089170701,05/03/2011 18:51,305.42
363653089170701,05/03/2011 18:52,305.43
363653089170701,05/03/2011 18:53,305.43
363653089170701,05/03/2011 18:54,305.44
363653089170701,05/03/2011 18:55,305.44
363653089170701,05/03/2011 18:56,305.44
363653089170701,05/03/2011 18:57,305.46
363653089170701,05/03/2011 18:58,305.47
363653089170701,05/03/2011 18:59,305.47
363653089170701,05/03/2011 19:00,305.46
363653089170701,05/03/2011 19:01,305.47
363653089170701,05/03/2011 19:02,305.48
363653089170701,05/03/2011 19:03,305.47
363653089170701,05/03/2011 19:04,305.48
363653089170701,05/03/2011 19:05,305.49
363653089170701,05/03/2011 19:06,305.49
363653089170701,05/03/2011 19:07,305.49
363653089170701,05/03/2011 19:08,305.49
363653089170701,05/03/2011 19:09,305.49
363653089170701,05/03/2011 19:10,305.5
363653089170701,05/03/2011 19:11,305.5
363653089170701,05/03/2011 19:12,305.52
363653089170701,05/03/2011 19:13,305.52
363653089170701,05/03/2011 19:14,305.53
363653089170701,05/03/2011 19:15,305.53
363653089170701,05/03/2011 19:16,305.53
363653089170701,05/03/2011 19:17,305.54
363653089170701,05/03/2011 19:18,305.55
363653089170701,05/03/2011 19:19,305.55
363653089170701,05/03/2011 19:20,305.55
363653089170701,05/03/2011 19:21,305.56
363653089170701,05/03/2011 19:22,305.55
363653089170701,05/03/2011 19:23,305.57
363653089170701,05/03/2011 19:24,305.57
363653089170701,05/03/2011 19:25,305.57
363653089170701,05/03/2011 19:26,305.58
363653089170701,05/03/2011 19:27,305.58
363653089170701,05/03/2011 19:28,305.59
363653089170701,05/03/2011 19:29,305.6
363653089170701,05/03/2011 19:30,305.61
363653089170701,05/03/2011 19:31,305.61
363653089170701,05/03/2011 19:32,305.61
363653089170701,05/03/2011 19:33,305.62
363653089170701,05/03/2011 19:34,305.61
363653089170701,05/03/2011 19:35,305.61
363653089170701,05/03/2011 19:36,305.63
363653089170701,05/03/2011 19:37,305.64
363653089170701,05/03/2011 19:38,305.63
363653089170701,05/03/2011 19:39,305.63
363653089170701,05/03/2011 19:40,305.65
363653089170701,05/03/2011 19:41,305.65
363653089170701,05/03/2011 19:42,305.66
363653089170701,05/03/2011 19:43,305.65
363653089170701,05/03/2011 19:44,305.66
363653089170701,05/03/2011 19:45,305.66
363653089170701,05/03/2011 19:46,305.67
363653089170701,05/03/2011 19:47,305.68
363653089170701,05/03/2011 19:48,305.67
363653089170701,05/03/2011 19:49,305.67
363653089170701,05/03/2011 19:50,305.68
363653089170701,05/03/2011 19:51,305.69
363653089170701,05/03/2011 19:52,305.7
363653089170701,05/03/2011 19:53,305.7
363653089170701,05/03/2011 19:54,305.7
363653089170701,05/03/2011 19:55,305.71
363653089170701,05/03/2011 19:56,305.71
363653089170701,05/03/2011 19:57,305.71
363653089170701,05/03/2011 19:58,305.71
363653089170701,05/03/2011 19:59,305.72
363653089170701,05/03/2011 20:00,305.72
363653089170701,05/03/2011 20:01,305.73
363653089170701,05/03/2011 20:02,305.73
363653089170701,05/03/2011 20:03,305.74
363653089170701,05/03/2011 20:04,305.74
363653089170701,05/03/2011 20:05,305.74
363653089170701,05/03/2011 20:06,305.74
363653089170701,05/03/2011 20:07,305.75
363653089170701,05/03/2011 20:08,305.75
363653089170701,05/03/2011 20:09,305.76
363653089170701,05/03/2011 20:10,305.76
363653089170701,05/03/2011 20:11,305.77
363653089170701,05/03/2011 20:12,305.77
363653089170701,05/03/2011 20:13,305.77
363653089170701,05/03/2011 20:14,305.78
363653089170701,05/03/2011 20:15,305.78
363653089170701,05/03/2011 20:16,305.8
363653089170701,05/03/2011 20:17,305.79
363653089170701,05/03/2011 20:18,305.8
363653089170701,05/03/2011 20:19,305.8
363653089170701,05/03/2011 20:20,305.8
363653089170701,05/03/2011 20:21,305.81
363653089170701,05/03/2011 20:22,305.82
363653089170701,05/03/2011 20:23,305.82
363653089170701,05/03/2011 20:24,305.82
363653089170701,05/03/2011 20:25,305.83
363653089170701,05/03/2011 20:26,305.82
363653089170701,05/03/2011 20:27,305.83
363653089170701,05/03/2011 20:28,305.83
363653089170701,05/03/2011 20:29,305.84
363653089170701,05/03/2011 20:30,305.84
363653089170701,05/03/2011 20:31,305.84
363653089170701,05/03/2011 20:32,305.86
363653089170701,05/03/2011 20:33,305.86
363653089170701,05/03/2011 20:34,305.86
363653089170701,05/03/2011 20:35,305.86
363653089170701,05/03/2011 20:36,305.86
363653089170701,05/03/2011 20:37,305.86
363653089170701,05/03/2011 20:38,305.87
363653089170701,05/03/2011 20:39,305.88
363653089170701,05/03/2011 20:40,305.88
363653089170701,05/03/2011 20:41,305.88
363653089170701,05/03/2011 20:42,305.89
363653089170701,05/03/2011 20:43,305.89
363653089170701,05/03/2011 20:44,305.89
363653089170701,05/03/2011 20:45,305.89
363653089170701,05/03/2011 20:46,305.9
363653089170701,05/03/2011 20:47,305.9
363653089170701,05/03/2011 20:48,305.92
363653089170701,05/03/2011 20:49,305.91
363653089170701,05/03/2011 20:50,305.92
363653089170701,05/03/2011 20:51,305.92
363653089170701,05/03/2011 20:52,305.94
363653089170701,05/03/2011 20:53,305.93
363653089170701,05/03/2011 20:54,305.93
363653089170701,05/03/2011 20:55,305.94
363653089170701,05/03/2011 20:56,305.94
363653089170701,05/03/2011 20:57,305.96
363653089170701,05/03/2011 20:58,305.95
363653089170701,05/03/2011 20:59,305.97
363653089170701,05/03/2011 21:00,305.97
363653089170701,05/03/2011 21:01,305.98
363653089170701,05/03/2011 21:02,305.98
363653089170701,05/03/2011 21:03,305.98
363653089170701,05/03/2011 21:04,305.98
363653089170701,05/03/2011 21:05,305.98
363653089170701,05/03/2011 21:06,305.99
363653089170701,05/03/2011 21:07,305.99
363653089170701,05/03/2011 21:08,305.99
363653089170701,05/03/2011 21:09,305.99
363653089170701,05/03/2011 21:10,305.99
363653089170701,05/03/2011 21:11,305.99
363653089170701,05/03/2011 21:12,306
363653089170701,05/03/2011 21:13,306.01
363653089170701,05/03/2011 21:14,306.01
363653089170701,05/03/2011 21:15,306.03
363653089170701,05/03/2011 21:16,306.03
363653089170701,05/03/2011 21:17,306.04
363653089170701,05/03/2011 21:18,306.04
363653089170701,05/03/2011 21:19,306.05
363653089170701,05/03/2011 21:20,306.05
363653089170701,05/03/2011 21:21,306.05
363653089170701,05/03/2011 21:22,306.05
363653089170701,05/03/2011 21:23,306.06
363653089170701,05/03/2011 21:24,306.06
363653089170701,05/03/2011 21:25,306.07
363653089170701,05/03/2011 21:26,306.07
363653089170701,05/03/2011 21:27,306.07
363653089170701,05/03/2011 21:28,306.08
363653089170701,05/03/2011 21:29,306.08
363653089170701,05/03/2011 21:30,306.08
363653089170701,05/03/2011 21:31,306.08
363653089170701,05/03/2011 21:32,306.09
363653089170701,05/03/2011 21:33,306.09
363653089170701,05/03/2011 21:34,306.09
363653089170701,05/03/2011 21:35,306.1
363653089170701,05/03/2011 21:36,306.11
363653089170701,05/03/2011 21:37,306.11
363653089170701,05/03/2011 21:38,306.12
363653089170701,05/03/2011 21:39,306.12
363653089170701,05/03/2011 21:40,306.12
363653089170701,05/03/2011 21:41,306.13
363653089170701,05/03/2011 21:42,306.13
363653089170701,05/03/2011 21:43,306.13
363653089170701,05/03/2011 21:44,306.13
363653089170701,05/03/2011 21:45,306.14
363653089170701,05/03/2011 21:46,306.15
363653089170701,05/03/2011 21:47,306.14
363653089170701,05/03/2011 21:48,306.15
363653089170701,05/03/2011 21:49,306.16
363653089170701,05/03/2011 21:50,306.17
363653089170701,05/03/2011 21:51,306.17
363653089170701,05/03/2011 21:52,306.19
363653089170701,05/03/2011 21:53,306.19
363653089170701,05/03/2011 21:54,306.2
363653089170701,05/03/2011 21:55,306.2
363653089170701,05/03/2011 21:56,306.2
363653089170701,05/03/2011 21:57,306.21
363653089170701,05/03/2011 21:58,306.19
363653089170701,05/03/2011 21:59,306.2
363653089170701,05/03/2011 22:00,306.2
363653089170701,05/03/2011 22:01,306.21
363653089170701,05/03/2011 22:02,306.2
363653089170701,05/03/2011 22:03,306.21
363653089170701,05/03/2011 22:04,306.21
363653089170701,05/03/2011 22:05,306.21
363653089170701,05/03/2011 22:06,306.22
363653089170701,05/03/2011 22:07,306.22
363653089170701,05/03/2011 22:08,306.23
363653089170701,05/03/2011 22:09,306.25
363653089170701,05/03/2011 22:10,306.24
363653089170701,05/03/2011 22:11,306.25
363653089170701,05/03/2011 22:12,306.25
363653089170701,05/03/2011 22:13,306.24
363653089170701,05/03/2011 22:14,306.26
363653089170701,05/03/2011 22:15,306.25
363653089170701,05/03/2011 22:16,306.26
363653089170701,05/03/2011 22:17,306.26
363653089170701,05/03/2011 22:18,306.27
363653089170701,05/03/2011 22:19,306.26
363653089170701,05/03/2011 22:20,306.27
363653089170701,05/03/2011 22:21,306.27
363653089170701,05/03/2011 22:22,306.27
363653089170701,05/03/2011 22:23,306.27
363653089170701,05/03/2011 22:24,306.29
363653089170701,05/03/2011 22:25,306.3
363653089170701,05/03/2011 22:26,306.29
363653089170701,05/03/2011 22:27,306.29
363653089170701,05/03/2011 22:28,306.3
363653089170701,05/03/2011 22:29,306.3
363653089170701,05/03/2011 22:30,306.31
363653089170701,05/03/2011 22:31,306.31
363653089170701,05/03/2011 22:32,306.31
363653089170701,05/03/2011 22:33,306.32
363653089170701,05/03/2011 22:34,306.32
363653089170701,05/03/2011 22:35,306.32
363653089170701,05/03/2011 22:36,306.32
363653089170701,05/03/2011 22:37,306.32
363653089170701,05/03/2011 22:38,306.33
363653089170701,05/03/2011 22:39,306.34
363653089170701,05/03/2011 22:40,306.34
363653089170701,05/03/2011 22:41,306.33
363653089170701,05/03/2011 22:42,306.36
363653089170701,05/03/2011 22:43,306.36
363653089170701,05/03/2011 22:44,306.35
363653089170701,05/03/2011 22:45,306.36
363653089170701,05/03/2011 22:46,306.36
363653089170701,05/03/2011 22:47,306.37
363653089170701,05/03/2011 22:48,306.37
363653089170701,05/03/2011 22:49,306.36
363653089170701,05/03/2011 22:50,306.38
363653089170701,05/03/2011 22:51,306.38
363653089170701,05/03/2011 22:52,306.37
363653089170701,05/03/2011 22:53,306.38
363653089170701,05/03/2011 22:54,306.39
363653089170701,05/03/2011 22:55,306.38
363653089170701,05/03/2011 22:56,306.39
363653089170701,05/03/2011 22:57,306.4
363653089170701,05/03/2011 22:58,306.4
363653089170701,05/03/2011 22:59,306.4
363653089170701,05/03/2011 23:00,306.4
363653089170701,05/03/2011 23:01,306.4
363653089170701,05/03/2011 23:02,306.41
363653089170701,05/03/2011 23:03,306.41
363653089170701,05/03/2011 23:04,306.42
363653089170701,05/03/2011 23:05,306.42
363653089170701,05/03/2011 23:06,306.43
363653089170701,05/03/2011 23:07,306.44
363653089170701,05/03/2011 23:08,306.45
363653089170701,05/03/2011 23:09,306.43
363653089170701,05/03/2011 23:10,306.46
363653089170701,05/03/2011 23:11,306.46
363653089170701,05/03/2011 23:12,306.47
363653089170701,05/03/2011 23:13,306.46
363653089170701,05/03/2011 23:14,306.46
363653089170701,05/03/2011 23:15,306.45
363653089170701,05/03/2011 23:16,306.48
363653089170701,05/03/2011 23:17,306.48
363653089170701,05/03/2011 23:18,306.48
363653089170701,05/03/2011 23:19,306.48
363653089170701,05/03/2011 23:20,306.48
363653089170701,05/03/2011 23:21,306.49
363653089170701,05/03/2011 23:22,306.5
363653089170701,05/03/2011 23:23,306.49
363653089170701,05/03/2011 23:24,306.5
363653089170701,05/03/2011 23:25,306.5
363653089170701,05/03/2011 23:26,306.51
363653089170701,05/03/2011 23:27,306.51
363653089170701,05/03/2011 23:28,306.51
363653089170701,05/03/2011 23:29,306.51
363653089170701,05/03/2011 23:30,306.52
363653089170701,05/03/2011 23:31,306.51
363653089170701,05/03/2011 23:32,306.51
363653089170701,05/03/2011 23:33,306.51
363653089170701,05/03/2011 23:34,306.52
363653089170701,05/03/2011 23:35,306.53
363653089170701,05/03/2011 23:36,306.54
363653089170701,05/03/2011 23:37,306.54
363653089170701,05/03/2011 23:38,306.54
363653089170701,05/03/2011 23:39,306.55
363653089170701,05/03/2011 23:40,306.55
363653089170701,05/03/2011 23:41,306.55
363653089170701,05/03/2011 23:42,306.54
363653089170701,05/03/2011 23:43,306.55
363653089170701,05/03/2011 23:44,306.55
363653089170701,05/03/2011 23:45,306.58
363653089170701,05/03/2011 23:46,306.57
363653089170701,05/03/2011 23:47,306.56
363653089170701,05/03/2011 23:48,306.59
363653089170701,05/03/2011 23:49,306.58
363653089170701,05/03/2011 23:50,306.58
363653089170701,05/03/2011 23:51,306.59
363653089170701,05/03/2011 23:52,306.59
363653089170701,05/03/2011 23:53,306.59
363653089170701,05/03/2011 23:54,306.6
363653089170701,05/03/2011 23:55,306.6
363653089170701,05/03/2011 23:56,306.6
363653089170701,05/03/2011 23:57,306.61
363653089170701,05/03/2011 23:58,306.61
363653089170701,05/03/2011 23:59,306.62
363653089170701,05/04/2011 00:00,306.63
363653089170701,05/04/2011 00:01,306.64
363653089170701,05/04/2011 00:02,306.64
363653089170701,05/04/2011 00:03,306.64
363653089170701,05/04/2011 00:04,306.65
363653089170701,05/04/2011 00:05,306.65
363653089170701,05/04/2011 00:06,306.64
363653089170701,05/04/2011 00:07,306.66
363653089170701,05/04/2011 00:08,306.67
363653089170701,05/04/2011 00:09,306.67
363653089170701,05/04/2011 00:10,306.67
363653089170701,05/04/2011 00:11,306.7
363653089170701,05/04/2011 00:12,306.7
363653089170701,05/04/2011 00:13,306.7
363653089170701,05/04/2011 00:14,306.71
363653089170701,05/04/2011 00:15,306.73
363653089170701,05/04/2011 00:16,306.74
363653089170701,05/04/2011 00:17,306.74
363653089170701,05/04/2011 00:18,306.75
363653089170701,05/04/2011 00:19,306.76
363653089170701,05/04/2011 00:20,306.73
363653089170701,05/04/2011 00:21,306.78
363653089170701,05/04/2011 00:22,306.76
363653089170701,05/04/2011 00:23,306.79
363653089170701,05/04/2011 00:24,306.75
363653089170701,05/04/2011 00:25,306.8
363653089170701,05/04/2011 00:26,306.73
363653089170701,05/04/2011 00:27,306.81
363653089170701,05/04/2011 00:28,306.77
363653089170701,05/04/2011 00:29,306.81
363653089170701,05/04/2011 00:30,306.9
363653089170701,05/04/2011 00:31,306.77
363653089170701,05/04/2011 00:32,306.69
363653089170701,05/04/2011 00:33,306.67
363653089170701,05/04/2011 00:34,306.72
363653089170701,05/04/2011 00:35,306.79
363653089170701,05/04/2011 00:36,306.8
363653089170701,05/04/2011 00:37,306.86
363653089170701,05/04/2011 00:38,306.95
363653089170701,05/04/2011 00:39,306.81
363653089170701,05/04/2011 00:40,306.85
363653089170701,05/04/2011 00:41,306.94
363653089170701,05/04/2011 00:42,306.92
363653089170701,05/04/2011 00:43,306.87
363653089170701,05/04/2011 00:44,306.8
363653089170701,05/04/2011 00:45,306.74
363653089170701,05/04/2011 00:46,306.86
363653089170701,05/04/2011 00:47,306.87
363653089170701,05/04/2011 00:48,306.85
363653089170701,05/04/2011 00:49,306.74
363653089170701,05/04/2011 00:50,306.95
363653089170701,05/04/2011 00:51,306.89
363653089170701,05/04/2011 00:52,306.96
363653089170701,05/04/2011 00:53,306.81
363653089170701,05/04/2011 00:54,306.8
363653089170701,05/04/2011 00:55,307.06
363653089170701,05/04/2011 00:56,306.89
363653089170701,05/04/2011 00:57,306.8
363653089170701,05/04/2011 00:58,306.86
363653089170701,05/04/2011 00:59,306.88
363653089170701,05/04/2011 01:00,306.89
363653089170701,05/04/2011 01:01,306.86
363653089170701,05/04/2011 01:02,306.75
363653089170701,05/04/2011 01:03,306.91
363653089170701,05/04/2011 01:04,306.95
363653089170701,05/04/2011 01:05,306.85
363653089170701,05/04/2011 01:06,306.93
363653089170701,05/04/2011 01:07,306.81
363653089170701,05/04/2011 01:08,306.67
363653089170701,05/04/2011 01:09,306.88
363653089170701,05/04/2011 01:10,306.81
363653089170701,05/04/2011 01:11,306.98
363653089170701,05/04/2011 01:12,306.94
363653089170701,05/04/2011 01:13,306.93
363653089170701,05/04/2011 01:14,306.89
363653089170701,05/04/2011 01:15,306.92
363653089170701,05/04/2011 01:16,306.9
363653089170701,05/04/2011 01:17,306.94
363653089170701,05/04/2011 01:18,306.96
363653089170701,05/04/2011 01:19,306.89
363653089170701,05/04/2011 01:20,306.95
363653089170701,05/04/2011 01:21,307
363653089170701,05/04/2011 01:22,306.88
363653089170701,05/04/2011 01:23,306.92
363653089170701,05/04/2011 01:24,306.92
363653089170701,05/04/2011 01:25,306.93
363653089170701,05/04/2011 01:26,306.91
363653089170701,05/04/2011 01:27,306.88
363653089170701,05/04/2011 01:28,306.86
363653089170701,05/04/2011 01:29,307.03
363653089170701,05/04/2011 01:30,306.89
363653089170701,05/04/2011 01:31,306.88
363653089170701,05/04/2011 01:32,306.99
363653089170701,05/04/2011 01:33,306.9
363653089170701,05/04/2011 01:34,306.93
363653089170701,05/04/2011 01:35,306.87
363653089170701,05/04/2011 01:36,306.93
363653089170701,05/04/2011 01:37,306.94
363653089170701,05/04/2011 01:38,307
363653089170701,05/04/2011 01:39,306.98
363653089170701,05/04/2011 01:40,306.97
363653089170701,05/04/2011 01:41,306.86
363653089170701,05/04/2011 01:42,307
363653089170701,05/04/2011 01:43,306.98
363653089170701,05/04/2011 01:44,306.92
363653089170701,05/04/2011 01:45,306.95
363653089170701,05/04/2011 01:46,306.93
363653089170701,05/04/2011 01:47,306.92
363653089170701,05/04/2011 01:48,306.91
363653089170701,05/04/2011 01:49,306.88
363653089170701,05/04/2011 01:50,306.93
363653089170701,05/04/2011 01:51,306.91
363653089170701,05/04/2011 01:52,307.13
363653089170701,05/04/2011 01:53,306.9
363653089170701,05/04/2011 01:54,307.06
363653089170701,05/04/2011 01:55,306.97
363653089170701,05/04/2011 01:56,306.94
363653089170701,05/04/2011 01:57,306.95
363653089170701,05/04/2011 01:58,307.03
363653089170701,05/04/2011 01:59,306.99
363653089170701,05/04/2011 02:00,307.12
363653089170701,05/04/2011 02:01,307.1
363653089170701,05/04/2011 02:02,307.03
363653089170701,05/04/2011 02:03,307.04
363653089170701,05/04/2011 02:04,306.93
363653089170701,05/04/2011 02:05,307.01
363653089170701,05/04/2011 02:06,307.1
363653089170701,05/04/2011 02:07,307.04
363653089170701,05/04/2011 02:08,307.04
363653089170701,05/04/2011 02:09,307.08
363653089170701,05/04/2011 02:10,307.05
363653089170701,05/04/2011 02:11,307.13
363653089170701,05/04/2011 02:12,307.06
363653089170701,05/04/2011 02:13,307.05
363653089170701,05/04/2011 02:14,307.07
363653089170701,05/04/2011 02:15,307.08
363653089170701,05/04/2011 02:16,307.1
363653089170701,05/04/2011 02:17,307.04
363653089170701,05/04/2011 02:18,307.02
363653089170701,05/04/2011 02:19,307.01
363653089170701,05/04/2011 02:20,307.02
363653089170701,05/04/2011 02:21,307.1
363653089170701,05/04/2011 02:22,307.11
363653089170701,05/04/2011 02:23,307.06
363653089170701,05/04/2011 02:24,307.11
363653089170701,05/04/2011 02:25,307.04
363653089170701,05/04/2011 02:26,307.11
363653089170701,05/04/2011 02:27,307.08
363653089170701,05/04/2011 02:28,307.09
363653089170701,05/04/2011 02:29,307.15
363653089170701,05/04/2011 02:30,307.1
363653089170701,05/04/2011 02:31,307.04
363653089170701,05/04/2011 02:32,307.11
363653089170701,05/04/2011 02:33,307.06
363653089170701,05/04/2011 02:34,307.09
363653089170701,05/04/2011 02:35,307.18
363653089170701,05/04/2011 02:36,307.1
363653089170701,05/04/2011 02:37,307.1
363653089170701,05/04/2011 02:38,307.16
363653089170701,05/04/2011 02:39,307.07
363653089170701,05/04/2011 02:40,307.1
363653089170701,05/04/2011 02:41,307.07
363653089170701,05/04/2011 02:42,307.02
363653089170701,05/04/2011 02:43,307.06
363653089170701,05/04/2011 02:44,307.2
363653089170701,05/04/2011 02:45,307.17
363653089170701,05/04/2011 02:46,307.06
363653089170701,05/04/2011 02:47,307.17
363653089170701,05/04/2011 02:48,307.11
363653089170701,05/04/2011 02:49,307.14
363653089170701,05/04/2011 02:50,307.09
363653089170701,05/04/2011 02:51,307.16
363653089170701,05/04/2011 02:52,307.18
363653089170701,05/04/2011 02:53,307.17
363653089170701,05/04/2011 02:54,307.21
363653089170701,05/04/2011 02:55,307.13
363653089170701,05/04/2011 02:56,307.11
363653089170701,05/04/2011 02:57,307.11
363653089170701,05/04/2011 02:58,307.17
363653089170701,05/04/2011 02:59,307.14
363653089170701,05/04/2011 03:00,307.14
363653089170701,05/04/2011 03:01,307.12
363653089170701,05/04/2011 03:02,307.14
363653089170701,05/04/2011 03:03,307.23
363653089170701,05/04/2011 03:04,307.15
363653089170701,05/04/2011 03:05,307.18
363653089170701,05/04/2011 03:06,307.18
363653089170701,05/04/2011 03:07,307.15
363653089170701,05/04/2011 03:08,307.22
363653089170701,05/04/2011 03:09,307.14
363653089170701,05/04/2011 03:10,307.07
363653089170701,05/04/2011 03:11,307.08
363653089170701,05/04/2011 03:12,307.23
363653089170701,05/04/2011 03:13,307.13
363653089170701,05/04/2011 03:14,307.16
363653089170701,05/04/2011 03:15,307.23
363653089170701,05/04/2011 03:16,307.19
363653089170701,05/04/2011 03:17,307.15
363653089170701,05/04/2011 03:18,307.18
363653089170701,05/04/2011 03:19,307.14
363653089170701,05/04/2011 03:20,307.22
363653089170701,05/04/2011 03:21,307.17
363653089170701,05/04/2011 03:22,307.19
363653089170701,05/04/2011 03:23,307.2
363653089170701,05/04/2011 03:24,307.14
363653089170701,05/04/2011 03:25,307.22
363653089170701,05/04/2011 03:26,307.19
363653089170701,05/04/2011 03:27,307.2
363653089170701,05/04/2011 03:28,307.17
363653089170701,05/04/2011 03:29,307.22
363653089170701,05/04/2011 03:30,307.2
363653089170701,05/04/2011 03:31,307.23
363653089170701,05/04/2011 03:32,307.26
363653089170701,05/04/2011 03:33,307.24
363653089170701,05/04/2011 03:34,307.21
363653089170701,05/04/2011 03:35,307.27
363653089170701,05/04/2011 03:36,307.29
363653089170701,05/04/2011 03:37,307.21
363653089170701,05/04/2011 03:38,307.26
363653089170701,05/04/2011 03:39,307.15
363653089170701,05/04/2011 03:40,307.19
363653089170701,05/04/2011 03:41,307.22
363653089170701,05/04/2011 03:42,307.22
363653089170701,05/04/2011 03:43,307.31
363653089170701,05/04/2011 03:44,307.28
363653089170701,05/04/2011 03:45,307.27
363653089170701,05/04/2011 03:46,307.29
363653089170701,05/04/2011 03:47,307.24
363653089170701,05/04/2011 03:48,307.24
363653089170701,05/04/2011 03:49,307.24
363653089170701,05/04/2011 03:50,307.23
363653089170701,05/04/2011 03:51,307.24
363653089170701,05/04/2011 03:52,307.28
363653089170701,05/04/2011 03:53,307.34
363653089170701,05/04/2011 03:54,307.21
363653089170701,05/04/2011 03:55,307.28
363653089170701,05/04/2011 03:56,307.22
363653089170701,05/04/2011 03:57,307.27
363653089170701,05/04/2011 03:58,307.24
363653089170701,05/04/2011 03:59,307.29
363653089170701,05/04/2011 04:00,307.3
363653089170701,05/04/2011 04:01,307.25
363653089170701,05/04/2011 04:02,307.26
363653089170701,05/04/2011 04:03,307.3
363653089170701,05/04/2011 04:04,307.28
363653089170701,05/04/2011 04:05,307.34
363653089170701,05/04/2011 04:06,307.3
363653089170701,05/04/2011 04:07,307.24
363653089170701,05/04/2011 04:08,307.27
363653089170701,05/04/2011 04:09,307.25
363653089170701,05/04/2011 04:10,307.26
363653089170701,05/04/2011 04:11,307.24
363653089170701,05/04/2011 04:12,307.34
363653089170701,05/04/2011 04:13,307.29
363653089170701,05/04/2011 04:14,307.3
363653089170701,05/04/2011 04:15,307.31
363653089170701,05/04/2011 04:16,307.28
363653089170701,05/04/2011 04:17,307.32
363653089170701,05/04/2011 04:18,307.3
363653089170701,05/04/2011 04:19,307.33
363653089170701,05/04/2011 04:20,307.36
363653089170701,05/04/2011 04:21,307.29
363653089170701,05/04/2011 04:22,307.34
363653089170701,05/04/2011 04:23,307.35
363653089170701,05/04/2011 04:24,307.31
363653089170701,05/04/2011 04:25,307.36
363653089170701,05/04/2011 04:26,307.36
363653089170701,05/04/2011 04:27,307.35
363653089170701,05/04/2011 04:28,307.34
363653089170701,05/04/2011 04:29,307.37
363653089170701,05/04/2011 04:30,307.35
363653089170701,05/04/2011 04:31,307.33